iso_date,epoch_date,Year,Hour,Min,DOY,POS_DOY,Lat,Lon,BP,Ts,Ta,has_bp,has_ts,has_ta,BuoyID,Buoy_Type,Buoy_Owner,Logistics,Hemisphere
2018-08-06T19:00:28Z,1533582029,2018,19,0,218.792,218.792,70.5796,-19.3724,1017.0,4.83,-999.0,yes,yes,no,300234065582260,BD2GI,AOML,DNR,North
2018-08-06T19:59:31Z,1533585571,2018,20,0,218.833,218.833,70.5692,-19.3606,1017.0,4.86,-999.0,yes,yes,no,300234065582260,BD2GI,AOML,DNR,North
2018-08-06T21:00:00Z,1533589200,2018,21,0,218.875,218.875,70.557,-19.3522,1017.3,4.83,-999.0,yes,yes,no,300234065582260,BD2GI,AOML,DNR,North
2018-08-06T22:00:28Z,1533592829,2018,22,0,218.917,218.917,70.5454,-19.35,1017.3,4.79,-999.0,yes,yes,no,300234065582260,BD2GI,AOML,DNR,North
2018-08-06T22:59:31Z,1533596371,2018,23,0,218.958,218.958,70.536,-19.349,1017.4,4.79,-999.0,yes,yes,no,300234065582260,BD2GI,AOML,DNR,North
2018-08-07T00:00:00Z,1533600000,2018,0,0,219.0,219.0,70.5282,-19.3454,1017.2,4.76,-999.0,yes,yes,no,300234065582260,BD2GI,AOML,DNR,North
2018-08-07T01:00:28Z,1533603629,2018,1,0,219.042,219.042,70.5218,-19.341,1017.1,4.72,-999.0,yes,yes,no,300234065582260,BD2GI,AOML,DNR,North
2018-08-07T01:59:31Z,1533607171,2018,2,0,219.083,219.083,70.516,-19.3294,1017.0,4.66,-999.0,yes,yes,no,300234065582260,BD2GI,AOML,DNR,North
2018-08-07T03:00:00Z,1533610800,2018,3,0,219.125,219.125,70.5114,-19.3134,1016.6,4.62,-999.0,yes,yes,no,300234065582260,BD2GI,AOML,DNR,North
2018-08-07T04:00:28Z,1533614429,2018,4,0,219.167,219.167,70.5066,-19.29,1016.4,4.62,-999.0,yes,yes,no,300234065582260,BD2GI,AOML,DNR,North
2018-08-07T04:59:31Z,1533617971,2018,5,0,219.208,219.208,70.5,-19.2618,1016.1,4.59,-999.0,yes,yes,no,300234065582260,BD2GI,AOML,DNR,North
2018-08-07T06:00:00Z,1533621600,2018,6,0,219.25,219.25,70.4924,-19.2354,1016.1,4.59,-999.0,yes,yes,no,300234065582260,BD2GI,AOML,DNR,North
2018-08-07T07:00:28Z,1533625229,2018,7,0,219.292,219.292,70.4826,-19.208,1015.9,4.62,-999.0,yes,yes,no,300234065582260,BD2GI,AOML,DNR,North
2018-08-07T07:59:31Z,1533628771,2018,8,0,219.333,219.333,70.4716,-19.184,1015.5,4.66,-999.0,yes,yes,no,300234065582260,BD2GI,AOML,DNR,North
2018-08-07T09:00:00Z,1533632400,2018,9,0,219.375,219.375,70.4588,-19.1654,1015.3,4.59,-999.0,yes,yes,no,300234065582260,BD2GI,AOML,DNR,North
2018-08-07T10:00:28Z,1533636029,2018,10,0,219.417,219.417,70.4458,-19.1524,1015.2,4.59,-999.0,yes,yes,no,300234065582260,BD2GI,AOML,DNR,North
2018-08-07T10:59:31Z,1533639571,2018,11,0,219.458,219.458,70.4368,-19.1474,1014.6,4.59,-999.0,yes,yes,no,300234065582260,BD2GI,AOML,DNR,North
2018-08-07T12:00:00Z,1533643200,2018,12,0,219.5,219.5,70.428,-19.1436,1014.4,4.66,-999.0,yes,yes,no,300234065582260,BD2GI,AOML,DNR,North
2018-08-07T13:00:28Z,1533646829,2018,13,0,219.542,219.542,70.4206,-19.137,1014.0,4.79,-999.0,yes,yes,no,300234065582260,BD2GI,AOML,DNR,North
2018-08-07T13:59:31Z,1533650371,2018,14,0,219.583,219.583,70.4162,-19.1294,1013.5,4.89,-999.0,yes,yes,no,300234065582260,BD2GI,AOML,DNR,North
2018-08-07T15:00:00Z,1533654000,2018,15,0,219.625,219.625,70.4136,-19.11,1012.9,5.31,-999.0,yes,yes,no,300234065582260,BD2GI,AOML,DNR,North
2018-08-07T16:00:28Z,1533657629,2018,16,0,219.667,219.667,70.4106,-19.0834,1012.5,5.34,-999.0,yes,yes,no,300234065582260,BD2GI,AOML,DNR,North
2018-08-07T16:59:31Z,1533661171,2018,17,0,219.708,219.708,70.4058,-19.053,1012.1,5.34,-999.0,yes,yes,no,300234065582260,BD2GI,AOML,DNR,North
2018-08-07T18:00:00Z,1533664800,2018,18,0,219.75,219.75,70.4006,-19.0178,1011.8,5.75,-999.0,yes,yes,no,300234065582260,BD2GI,AOML,DNR,North
2018-08-07T19:00:28Z,1533668429,2018,19,0,219.792,219.792,70.3924,-18.986,1011.4,5.58,-999.0,yes,yes,no,300234065582260,BD2GI,AOML,DNR,North
2018-08-07T19:59:31Z,1533671971,2018,20,0,219.833,219.833,70.3826,-18.9584,1010.9,5.34,-999.0,yes,yes,no,300234065582260,BD2GI,AOML,DNR,North
2018-08-07T21:00:00Z,1533675600,2018,21,0,219.875,219.875,70.3714,-18.9368,1010.4,5.37,-999.0,yes,yes,no,300234065582260,BD2GI,AOML,DNR,North
2018-08-07T22:00:28Z,1533679229,2018,22,0,219.917,219.917,70.36,-18.9266,1010.0,5.37,-999.0,yes,yes,no,300234065582260,BD2GI,AOML,DNR,North
2018-08-07T22:59:31Z,1533682771,2018,23,0,219.958,219.958,70.35,-18.9228,1009.8,4.89,-999.0,yes,yes,no,300234065582260,BD2GI,AOML,DNR,North
2018-08-08T00:00:00Z,1533686400,2018,0,0,220.0,220.0,70.3424,-18.9214,1009.4,4.93,-999.0,yes,yes,no,300234065582260,BD2GI,AOML,DNR,North
2018-08-08T01:00:28Z,1533690029,2018,1,0,220.042,220.042,70.3368,-18.918,1009.1,5.0,-999.0,yes,yes,no,300234065582260,BD2GI,AOML,DNR,North
2018-08-08T01:59:31Z,1533693571,2018,2,0,220.083,220.083,70.3328,-18.9118,1008.8,4.96,-999.0,yes,yes,no,300234065582260,BD2GI,AOML,DNR,North
2018-08-08T03:00:00Z,1533697200,2018,3,0,220.125,220.125,70.3294,-18.8986,1008.6,4.93,-999.0,yes,yes,no,300234065582260,BD2GI,AOML,DNR,North
2018-08-08T04:00:28Z,1533700829,2018,4,0,220.167,220.167,70.3272,-18.8852,1008.2,4.93,-999.0,yes,yes,no,300234065582260,BD2GI,AOML,DNR,North
2018-08-08T04:59:31Z,1533704371,2018,5,0,220.208,220.208,70.326,-18.8658,1008.0,4.96,-999.0,yes,yes,no,300234065582260,BD2GI,AOML,DNR,North
2018-08-08T06:00:00Z,1533708000,2018,6,0,220.25,220.25,70.324,-18.8382,1007.8,5.0,-999.0,yes,yes,no,300234065582260,BD2GI,AOML,DNR,North
2018-08-08T07:00:28Z,1533711629,2018,7,0,220.292,220.292,70.3194,-18.8084,1007.7,4.96,-999.0,yes,yes,no,300234065582260,BD2GI,AOML,DNR,North
2018-08-08T07:59:31Z,1533715171,2018,8,0,220.333,220.333,70.3126,-18.7792,1007.7,4.89,-999.0,yes,yes,no,300234065582260,BD2GI,AOML,DNR,North
2018-08-08T09:00:00Z,1533718800,2018,9,0,220.375,220.375,70.3048,-18.7536,1007.6,4.89,-999.0,yes,yes,no,300234065582260,BD2GI,AOML,DNR,North
2018-08-08T10:00:28Z,1533722429,2018,10,0,220.417,220.417,70.2962,-18.7334,1007.3,4.89,-999.0,yes,yes,no,300234065582260,BD2GI,AOML,DNR,North
2018-08-08T10:59:31Z,1533725971,2018,11,0,220.458,220.458,70.2868,-18.7184,1007.3,5.0,-999.0,yes,yes,no,300234065582260,BD2GI,AOML,DNR,North
2018-08-08T12:00:00Z,1533729600,2018,12,0,220.5,220.5,70.2776,-18.7058,1007.1,4.86,-999.0,yes,yes,no,300234065582260,BD2GI,AOML,DNR,North
2018-08-08T13:00:28Z,1533733229,2018,13,0,220.542,220.542,70.2682,-18.6976,1007.2,4.83,-999.0,yes,yes,no,300234065582260,BD2GI,AOML,DNR,North
2018-08-08T13:59:31Z,1533736771,2018,14,0,220.583,220.583,70.2598,-18.6916,1006.9,4.89,-999.0,yes,yes,no,300234065582260,BD2GI,AOML,DNR,North
2018-08-08T15:00:00Z,1533740400,2018,15,0,220.625,220.625,70.2538,-18.685,1006.5,4.93,-999.0,yes,yes,no,300234065582260,BD2GI,AOML,DNR,North
2018-08-08T16:00:28Z,1533744029,2018,16,0,220.667,220.667,70.2498,-18.673,1006.4,4.93,-999.0,yes,yes,no,300234065582260,BD2GI,AOML,DNR,North
2018-08-08T16:59:31Z,1533747571,2018,17,0,220.708,220.708,70.2464,-18.6574,1006.2,5.03,-999.0,yes,yes,no,300234065582260,BD2GI,AOML,DNR,North
2018-08-08T18:00:00Z,1533751200,2018,18,0,220.75,220.75,70.2438,-18.6374,1006.2,5.07,-999.0,yes,yes,no,300234065582260,BD2GI,AOML,DNR,North
2018-08-08T19:00:28Z,1533754829,2018,19,0,220.792,220.792,70.2434,-18.6174,1005.9,5.03,-999.0,yes,yes,no,300234065582260,BD2GI,AOML,DNR,North
2018-08-08T19:59:31Z,1533758371,2018,20,0,220.833,220.833,70.2416,-18.5908,1006.2,5.1,-999.0,yes,yes,no,300234065582260,BD2GI,AOML,DNR,North
2018-08-08T21:00:00Z,1533762000,2018,21,0,220.875,220.875,70.2366,-18.5608,1006.2,4.96,-999.0,yes,yes,no,300234065582260,BD2GI,AOML,DNR,North
2018-08-08T22:00:28Z,1533765629,2018,22,0,220.917,220.917,70.2284,-18.5344,1006.1,5.07,-999.0,yes,yes,no,300234065582260,BD2GI,AOML,DNR,North
2018-08-08T22:59:31Z,1533769171,2018,23,0,220.958,220.958,70.2186,-18.5132,1006.1,5.07,-999.0,yes,yes,no,300234065582260,BD2GI,AOML,DNR,North
2018-08-09T00:00:00Z,1533772800,2018,0,0,221.0,221.0,70.2074,-18.501,1006.0,5.0,-999.0,yes,yes,no,300234065582260,BD2GI,AOML,DNR,North
2018-08-09T01:00:28Z,1533776429,2018,1,0,221.042,221.042,70.1954,-18.4982,1005.9,5.03,-999.0,yes,yes,no,300234065582260,BD2GI,AOML,DNR,North
2018-08-09T01:59:31Z,1533779971,2018,2,0,221.083,221.083,70.1842,-18.5004,1005.8,5.0,-999.0,yes,yes,no,300234065582260,BD2GI,AOML,DNR,North
2018-08-09T03:00:00Z,1533783600,2018,3,0,221.125,221.125,70.2682,-13.1078,1005.6,4.96,-999.0,yes,yes,no,300234065582260,BD2GI,AOML,DNR,North
2018-08-09T04:00:28Z,1533787229,2018,4,0,221.167,221.167,70.1704,-18.5166,1005.4,4.96,-999.0,yes,yes,no,300234065582260,BD2GI,AOML,DNR,North
2018-08-09T04:59:31Z,1533790771,2018,5,0,221.208,221.208,70.1678,-18.5178,1005.4,5.0,-999.0,yes,yes,no,300234065582260,BD2GI,AOML,DNR,North
2018-08-09T06:00:00Z,1533794400,2018,6,0,221.25,221.25,70.166,-18.515,1005.5,5.0,-999.0,yes,yes,no,300234065582260,BD2GI,AOML,DNR,North
2018-08-09T07:00:28Z,1533798029,2018,7,0,221.292,221.292,70.1654,-18.5056,1005.6,4.93,-999.0,yes,yes,no,300234065582260,BD2GI,AOML,DNR,North
2018-08-09T07:59:31Z,1533801571,2018,8,0,221.333,221.333,70.163,-18.4882,1005.8,4.93,-999.0,yes,yes,no,300234065582260,BD2GI,AOML,DNR,North
2018-08-09T09:00:00Z,1533805200,2018,9,0,221.375,221.375,70.1586,-18.4684,1005.6,4.96,-999.0,yes,yes,no,300234065582260,BD2GI,AOML,DNR,North
2018-08-09T10:00:28Z,1533808829,2018,10,0,221.417,221.417,70.1514,-18.449,1005.8,4.96,-999.0,yes,yes,no,300234065582260,BD2GI,AOML,DNR,North
2018-08-09T10:59:31Z,1533812371,2018,11,0,221.458,221.458,70.1404,-18.4304,1005.8,5.0,-999.0,yes,yes,no,300234065582260,BD2GI,AOML,DNR,North
2018-08-09T12:00:00Z,1533816000,2018,12,0,221.5,221.5,70.1274,-18.4218,1006.1,5.0,-999.0,yes,yes,no,300234065582260,BD2GI,AOML,DNR,North
2018-08-09T13:00:28Z,1533819629,2018,13,0,221.542,221.542,70.1128,-18.4234,1006.3,5.0,-999.0,yes,yes,no,300234065582260,BD2GI,AOML,DNR,North
2018-08-09T13:59:31Z,1533823171,2018,14,0,221.583,221.583,70.0986,-18.4372,1006.2,5.0,-999.0,yes,yes,no,300234065582260,BD2GI,AOML,DNR,North
2018-08-09T15:00:00Z,1533826800,2018,15,0,221.625,221.625,70.0868,-18.4544,1006.3,5.0,-999.0,yes,yes,no,300234065582260,BD2GI,AOML,DNR,North
2018-08-09T16:00:28Z,1533830429,2018,16,0,221.667,221.667,70.0776,-18.4732,1006.4,5.0,-999.0,yes,yes,no,300234065582260,BD2GI,AOML,DNR,North
2018-08-09T16:59:31Z,1533833971,2018,17,0,221.708,221.708,70.0716,-18.4912,1006.5,5.0,-999.0,yes,yes,no,300234065582260,BD2GI,AOML,DNR,North
2018-08-09T18:00:00Z,1533837600,2018,18,0,221.75,221.75,70.0706,-18.504,1006.7,4.96,-999.0,yes,yes,no,300234065582260,BD2GI,AOML,DNR,North
2018-08-09T19:00:28Z,1533841229,2018,19,0,221.792,221.792,70.0696,-18.5038,1006.7,4.89,-999.0,yes,yes,no,300234065582260,BD2GI,AOML,DNR,North
2018-08-09T19:59:31Z,1533844771,2018,20,0,221.833,221.833,70.0686,-18.4976,1006.9,4.86,-999.0,yes,yes,no,300234065582260,BD2GI,AOML,DNR,North
2018-08-09T21:00:00Z,1533848400,2018,21,0,221.875,221.875,70.0658,-18.4848,1007.3,4.83,-999.0,yes,yes,no,300234065582260,BD2GI,AOML,DNR,North
2018-08-09T22:00:28Z,1533852029,2018,22,0,221.917,221.917,70.0598,-18.4676,1007.6,4.69,-999.0,yes,yes,no,300234065582260,BD2GI,AOML,DNR,North
2018-08-09T22:59:31Z,1533855571,2018,23,0,221.958,221.958,70.05,-18.457,1007.7,4.62,-999.0,yes,yes,no,300234065582260,BD2GI,AOML,DNR,North
2018-08-10T00:00:00Z,1533859200,2018,0,0,222.0,222.0,70.0376,-18.4552,1008.3,4.62,-999.0,yes,yes,no,300234065582260,BD2GI,AOML,DNR,North
2018-08-10T01:00:28Z,1533862829,2018,1,0,222.042,222.042,70.023,-18.464,1008.6,4.59,-999.0,yes,yes,no,300234065582260,BD2GI,AOML,DNR,North
2018-08-10T01:59:31Z,1533866371,2018,2,0,222.083,222.083,70.0088,-18.4836,1008.9,4.62,-999.0,yes,yes,no,300234065582260,BD2GI,AOML,DNR,North
2018-08-10T03:00:00Z,1533870000,2018,3,0,222.125,222.125,69.9966,-18.5144,1009.2,4.69,-999.0,yes,yes,no,300234065582260,BD2GI,AOML,DNR,North
2018-08-10T04:00:28Z,1533873629,2018,4,0,222.167,222.167,69.9878,-18.5456,1009.4,4.69,-999.0,yes,yes,no,300234065582260,BD2GI,AOML,DNR,North
2018-08-10T04:59:31Z,1533877171,2018,5,0,222.208,222.208,69.9812,-18.5782,1009.6,4.69,-999.0,yes,yes,no,300234065582260,BD2GI,AOML,DNR,North
2018-08-10T06:00:00Z,1533880800,2018,6,0,222.25,222.25,69.9774,-18.6036,1009.9,4.62,-999.0,yes,yes,no,300234065582260,BD2GI,AOML,DNR,North
2018-08-10T07:00:28Z,1533884429,2018,7,0,222.292,222.292,69.9776,-18.6224,1010.2,4.48,-999.0,yes,yes,no,300234065582260,BD2GI,AOML,DNR,North
2018-08-10T07:59:31Z,1533887971,2018,8,0,222.333,222.333,69.9762,-18.6304,1010.5,4.48,-999.0,yes,yes,no,300234065582260,BD2GI,AOML,DNR,North
2018-08-10T09:00:00Z,1533891600,2018,9,0,222.375,222.375,69.9728,-18.6356,1010.8,4.42,-999.0,yes,yes,no,300234065582260,BD2GI,AOML,DNR,North
2018-08-10T10:00:28Z,1533895229,2018,10,0,222.417,222.417,69.9672,-18.6352,1011.4,4.52,-999.0,yes,yes,no,300234065582260,BD2GI,AOML,DNR,North
2018-08-10T10:59:31Z,1533898771,2018,11,0,222.458,222.458,69.9588,-18.6326,1011.6,4.52,-999.0,yes,yes,no,300234065582260,BD2GI,AOML,DNR,North
2018-08-10T12:00:00Z,1533902400,2018,12,0,222.5,222.5,69.9448,-18.6366,1011.9,4.48,-999.0,yes,yes,no,300234065582260,BD2GI,AOML,DNR,North
2018-08-10T13:00:28Z,1533906029,2018,13,0,222.542,222.542,69.929,-18.6518,1012.0,4.52,-999.0,yes,yes,no,300234065582260,BD2GI,AOML,DNR,North
2018-08-10T13:59:31Z,1533909571,2018,14,0,222.583,222.583,69.9124,-18.6748,1012.1,4.55,-999.0,yes,yes,no,300234065582260,BD2GI,AOML,DNR,North
2018-08-10T15:00:00Z,1533913200,2018,15,0,222.625,222.625,69.8962,-18.7054,1012.2,4.66,-999.0,yes,yes,no,300234065582260,BD2GI,AOML,DNR,North
2018-08-10T16:00:28Z,1533916829,2018,16,0,222.667,222.667,69.8834,-18.7464,1012.2,4.66,-999.0,yes,yes,no,300234065582260,BD2GI,AOML,DNR,North
2018-08-10T16:59:31Z,1533920371,2018,17,0,222.708,222.708,69.8738,-18.7814,1012.4,4.62,-999.0,yes,yes,no,300234065582260,BD2GI,AOML,DNR,North
2018-08-10T18:00:00Z,1533924000,2018,18,0,222.75,222.75,69.8672,-18.809,1012.4,4.59,-999.0,yes,yes,no,300234065582260,BD2GI,AOML,DNR,North
2018-08-10T19:00:28Z,1533927629,2018,19,0,222.792,222.792,69.863,-18.827,1012.4,4.59,-999.0,yes,yes,no,300234065582260,BD2GI,AOML,DNR,North
2018-08-10T19:59:31Z,1533931171,2018,20,0,222.833,222.833,69.86,-18.84,1012.7,4.59,-999.0,yes,yes,no,300234065582260,BD2GI,AOML,DNR,North
2018-08-10T21:00:00Z,1533934800,2018,21,0,222.875,222.875,69.857,-18.846,1012.8,4.59,-999.0,yes,yes,no,300234065582260,BD2GI,AOML,DNR,North
2018-08-10T22:00:28Z,1533938429,2018,22,0,222.917,222.917,69.852,-18.841,1012.8,4.59,-999.0,yes,yes,no,300234065582260,BD2GI,AOML,DNR,North
2018-08-10T22:59:31Z,1533941971,2018,23,0,222.958,222.958,69.843,-18.833,1012.9,4.55,-999.0,yes,yes,no,300234065582260,BD2GI,AOML,DNR,North
2018-08-11T00:00:00Z,1533945600,2018,0,0,223.0,223.0,69.83,-18.832,1012.9,4.52,-999.0,yes,yes,no,300234065582260,BD2GI,AOML,DNR,North
2018-08-11T01:00:28Z,1533949229,2018,1,0,223.042,223.042,69.814,-18.845,1013.0,4.52,-999.0,yes,yes,no,300234065582260,BD2GI,AOML,DNR,North
2018-08-11T01:59:31Z,1533952771,2018,2,0,223.083,223.083,69.798,-18.87,1013.2,4.52,-999.0,yes,yes,no,300234065582260,BD2GI,AOML,DNR,North
2018-08-11T03:00:00Z,1533956400,2018,3,0,223.125,223.125,69.785,-18.9,1013.4,4.52,-999.0,yes,yes,no,300234065582260,BD2GI,AOML,DNR,North
2018-08-11T04:00:28Z,1533960029,2018,4,0,223.167,223.167,69.774,-18.931,1013.3,4.52,-999.0,yes,yes,no,300234065582260,BD2GI,AOML,DNR,North
2018-08-11T04:59:31Z,1533963571,2018,5,0,223.208,223.208,69.765,-18.959,1013.7,4.52,-999.0,yes,yes,no,300234065582260,BD2GI,AOML,DNR,North
2018-08-11T06:00:00Z,1533967200,2018,6,0,223.25,223.25,69.759,-18.988,1013.9,4.55,-999.0,yes,yes,no,300234065582260,BD2GI,AOML,DNR,North
2018-08-11T07:00:28Z,1533970829,2018,7,0,223.292,223.292,69.753,-19.009,1014.3,4.52,-999.0,yes,yes,no,300234065582260,BD2GI,AOML,DNR,North
2018-08-11T07:59:31Z,1533974371,2018,8,0,223.333,223.333,69.748,-19.023,1014.8,4.59,-999.0,yes,yes,no,300234065582260,BD2GI,AOML,DNR,North
2018-08-11T09:00:00Z,1533978000,2018,9,0,223.375,223.375,69.743,-19.03,1015.4,4.62,-999.0,yes,yes,no,300234065582260,BD2GI,AOML,DNR,North
2018-08-11T10:00:28Z,1533981629,2018,10,0,223.417,223.417,69.736,-19.033,1015.8,4.62,-999.0,yes,yes,no,300234065582260,BD2GI,AOML,DNR,North
2018-08-11T10:59:31Z,1533985171,2018,11,0,223.458,223.458,69.726,-19.044,1016.1,4.45,-999.0,yes,yes,no,300234065582260,BD2GI,AOML,DNR,North
2018-08-11T12:00:00Z,1533988800,2018,12,0,223.5,223.5,69.715,-19.06,1016.5,4.31,-999.0,yes,yes,no,300234065582260,BD2GI,AOML,DNR,North
2018-08-11T13:00:28Z,1533992429,2018,13,0,223.542,223.542,69.704,-19.078,1016.7,4.21,-999.0,yes,yes,no,300234065582260,BD2GI,AOML,DNR,North
2018-08-11T13:59:31Z,1533995971,2018,14,0,223.583,223.583,69.692,-19.099,1016.8,4.45,-999.0,yes,yes,no,300234065582260,BD2GI,AOML,DNR,North
2018-08-11T15:00:00Z,1533999600,2018,15,0,223.625,223.625,69.68,-19.123,1017.0,4.55,-999.0,yes,yes,no,300234065582260,BD2GI,AOML,DNR,North
2018-08-11T16:00:28Z,1534003229,2018,16,0,223.667,223.667,69.668,-19.148,1017.3,4.79,-999.0,yes,yes,no,300234065582260,BD2GI,AOML,DNR,North
2018-08-11T16:59:31Z,1534006771,2018,17,0,223.708,223.708,69.655,-19.174,1017.4,4.93,-999.0,yes,yes,no,300234065582260,BD2GI,AOML,DNR,North
2018-08-11T18:00:00Z,1534010400,2018,18,0,223.75,223.75,69.643,-19.198,1017.4,4.79,-999.0,yes,yes,no,300234065582260,BD2GI,AOML,DNR,North
2018-08-11T19:00:28Z,1534014029,2018,19,0,223.792,223.792,69.633,-19.215,1017.5,4.93,-999.0,yes,yes,no,300234065582260,BD2GI,AOML,DNR,North
2018-08-11T19:59:31Z,1534017571,2018,20,0,223.833,223.833,69.625,-19.227,1017.4,4.93,-999.0,yes,yes,no,300234065582260,BD2GI,AOML,DNR,North
2018-08-11T21:00:00Z,1534021200,2018,21,0,223.875,223.875,69.618,-19.235,1017.2,4.93,-999.0,yes,yes,no,300234065582260,BD2GI,AOML,DNR,North
2018-08-11T22:00:28Z,1534024829,2018,22,0,223.917,223.917,69.612,-19.237,1017.1,4.62,-999.0,yes,yes,no,300234065582260,BD2GI,AOML,DNR,North
2018-08-11T22:59:31Z,1534028371,2018,23,0,223.958,223.958,69.606,-19.243,1016.9,4.35,-999.0,yes,yes,no,300234065582260,BD2GI,AOML,DNR,North
2018-08-12T00:00:00Z,1534032000,2018,0,0,224.0,224.0,69.599,-19.252,1016.9,4.31,-999.0,yes,yes,no,300234065582260,BD2GI,AOML,DNR,North
2018-08-12T01:00:28Z,1534035629,2018,1,0,224.042,224.042,69.59,-19.26,1016.5,4.28,-999.0,yes,yes,no,300234065582260,BD2GI,AOML,DNR,North
2018-08-12T01:59:31Z,1534039171,2018,2,0,224.083,224.083,69.579,-19.267,1016.3,4.38,-999.0,yes,yes,no,300234065582260,BD2GI,AOML,DNR,North
2018-08-12T03:00:00Z,1534042800,2018,3,0,224.125,224.125,69.567,-19.276,1016.2,4.42,-999.0,yes,yes,no,300234065582260,BD2GI,AOML,DNR,North
2018-08-12T04:00:28Z,1534046429,2018,4,0,224.167,224.167,69.553,-19.294,1015.7,4.48,-999.0,yes,yes,no,300234065582260,BD2GI,AOML,DNR,North
2018-08-12T04:59:31Z,1534049971,2018,5,0,224.208,224.208,69.54,-19.315,1015.5,4.42,-999.0,yes,yes,no,300234065582260,BD2GI,AOML,DNR,North
2018-08-12T06:00:00Z,1534053600,2018,6,0,224.25,224.25,69.528,-19.333,1015.3,4.52,-999.0,yes,yes,no,300234065582260,BD2GI,AOML,DNR,North
2018-08-12T07:00:28Z,1534057229,2018,7,0,224.292,224.292,69.52,-19.349,1015.1,4.62,-999.0,yes,yes,no,300234065582260,BD2GI,AOML,DNR,North
2018-08-12T07:59:31Z,1534060771,2018,8,0,224.333,224.333,69.512,-19.367,1014.9,4.66,-999.0,yes,yes,no,300234065582260,BD2GI,AOML,DNR,North
2018-08-12T09:00:00Z,1534064400,2018,9,0,224.375,224.375,69.507,-19.382,1014.8,4.48,-999.0,yes,yes,no,300234065582260,BD2GI,AOML,DNR,North
2018-08-12T10:00:28Z,1534068029,2018,10,0,224.417,224.417,69.505,-19.395,1014.8,4.35,-999.0,yes,yes,no,300234065582260,BD2GI,AOML,DNR,North
2018-08-12T10:59:31Z,1534071571,2018,11,0,224.458,224.458,69.502,-19.404,1014.8,4.35,-999.0,yes,yes,no,300234065582260,BD2GI,AOML,DNR,North
2018-08-12T12:00:00Z,1534075200,2018,12,0,224.5,224.5,69.499,-19.407,1014.7,4.45,-999.0,yes,yes,no,300234065582260,BD2GI,AOML,DNR,North
2018-08-12T13:00:28Z,1534078829,2018,13,0,224.542,224.542,69.493,-19.408,1014.5,4.79,-999.0,yes,yes,no,300234065582260,BD2GI,AOML,DNR,North
2018-08-12T13:59:31Z,1534082371,2018,14,0,224.583,224.583,69.482,-19.412,1014.1,4.83,-999.0,yes,yes,no,300234065582260,BD2GI,AOML,DNR,North
2018-08-12T15:00:00Z,1534086000,2018,15,0,224.625,224.625,69.469,-19.424,1013.8,4.89,-999.0,yes,yes,no,300234065582260,BD2GI,AOML,DNR,North
2018-08-12T16:00:28Z,1534089629,2018,16,0,224.667,224.667,69.457,-19.442,1013.5,4.96,-999.0,yes,yes,no,300234065582260,BD2GI,AOML,DNR,North
2018-08-12T16:59:31Z,1534093171,2018,17,0,224.708,224.708,69.445,-19.46,1013.1,4.69,-999.0,yes,yes,no,300234065582260,BD2GI,AOML,DNR,North
2018-08-12T18:00:00Z,1534096800,2018,18,0,224.75,224.75,69.434,-19.475,1012.8,4.72,-999.0,yes,yes,no,300234065582260,BD2GI,AOML,DNR,North
2018-08-12T19:00:28Z,1534100429,2018,19,0,224.792,224.792,69.422,-19.494,1012.7,4.83,-999.0,yes,yes,no,300234065582260,BD2GI,AOML,DNR,North
2018-08-12T19:59:31Z,1534103971,2018,20,0,224.833,224.833,69.414,-19.513,1012.4,4.79,-999.0,yes,yes,no,300234065582260,BD2GI,AOML,DNR,North
2018-08-12T21:00:00Z,1534107600,2018,21,0,224.875,224.875,69.408,-19.527,1012.0,4.66,-999.0,yes,yes,no,300234065582260,BD2GI,AOML,DNR,North
2018-08-12T22:00:28Z,1534111229,2018,22,0,224.917,224.917,69.404,-19.537,1011.9,4.62,-999.0,yes,yes,no,300234065582260,BD2GI,AOML,DNR,North
2018-08-12T22:59:31Z,1534114771,2018,23,0,224.958,224.958,69.403,-19.543,1011.5,4.66,-999.0,yes,yes,no,300234065582260,BD2GI,AOML,DNR,North
2018-08-13T00:00:00Z,1534118400,2018,0,0,225.0,225.0,69.401,-19.541,1011.5,4.86,-999.0,yes,yes,no,300234065582260,BD2GI,AOML,DNR,North
2018-08-13T01:00:28Z,1534122029,2018,1,0,225.042,225.042,69.395,-19.533,1011.2,4.89,-999.0,yes,yes,no,300234065582260,BD2GI,AOML,DNR,North
2018-08-13T01:59:31Z,1534125571,2018,2,0,225.083,225.083,69.387,-19.53,1011.0,4.93,-999.0,yes,yes,no,300234065582260,BD2GI,AOML,DNR,North
2018-08-13T03:00:00Z,1534129200,2018,3,0,225.125,225.125,69.376,-19.534,1010.6,4.96,-999.0,yes,yes,no,300234065582260,BD2GI,AOML,DNR,North
2018-08-13T04:00:28Z,1534132829,2018,4,0,225.167,225.167,69.363,-19.549,1010.3,4.96,-999.0,yes,yes,no,300234065582260,BD2GI,AOML,DNR,North
2018-08-13T04:59:31Z,1534136371,2018,5,0,225.208,225.208,69.352,-19.571,1010.2,4.93,-999.0,yes,yes,no,300234065582260,BD2GI,AOML,DNR,North
2018-08-13T06:00:00Z,1534140000,2018,6,0,225.25,225.25,69.342,-19.596,1010.3,4.69,-999.0,yes,yes,no,300234065582260,BD2GI,AOML,DNR,North
2018-08-13T07:00:28Z,1534143629,2018,7,0,225.292,225.292,69.334,-19.621,1010.2,4.79,-999.0,yes,yes,no,300234065582260,BD2GI,AOML,DNR,North
2018-08-13T07:59:31Z,1534147171,2018,8,0,225.333,225.333,69.329,-19.638,1010.2,4.96,-999.0,yes,yes,no,300234065582260,BD2GI,AOML,DNR,North
2018-08-13T09:00:00Z,1534150800,2018,9,0,225.375,225.375,69.325,-19.652,1010.2,5.0,-999.0,yes,yes,no,300234065582260,BD2GI,AOML,DNR,North
2018-08-13T10:00:28Z,1534154429,2018,10,0,225.417,225.417,69.324,-19.66,1010.2,5.0,-999.0,yes,yes,no,300234065582260,BD2GI,AOML,DNR,North
2018-08-13T10:59:31Z,1534157971,2018,11,0,225.458,225.458,69.322,-19.662,1010.2,5.0,-999.0,yes,yes,no,300234065582260,BD2GI,AOML,DNR,North
2018-08-13T12:00:00Z,1534161600,2018,12,0,225.5,225.5,69.321,-19.666,1010.3,5.0,-999.0,yes,yes,no,300234065582260,BD2GI,AOML,DNR,North
2018-08-13T13:00:28Z,1534165229,2018,13,0,225.542,225.542,69.317,-19.668,1010.0,5.03,-999.0,yes,yes,no,300234065582260,BD2GI,AOML,DNR,North
2018-08-13T13:59:31Z,1534168771,2018,14,0,225.583,225.583,69.311,-19.674,1009.9,5.07,-999.0,yes,yes,no,300234065582260,BD2GI,AOML,DNR,North
2018-08-13T15:00:00Z,1534172400,2018,15,0,225.625,225.625,69.304,-19.684,1009.6,5.24,-999.0,yes,yes,no,300234065582260,BD2GI,AOML,DNR,North
2018-08-13T16:00:28Z,1534176029,2018,16,0,225.667,225.667,69.295,-19.699,1009.3,5.24,-999.0,yes,yes,no,300234065582260,BD2GI,AOML,DNR,North
2018-08-13T16:59:31Z,1534179571,2018,17,0,225.708,225.708,69.285,-19.72,1009.0,5.37,-999.0,yes,yes,no,300234065582260,BD2GI,AOML,DNR,North
2018-08-13T18:00:00Z,1534183200,2018,18,0,225.75,225.75,69.275,-19.742,1008.9,5.41,-999.0,yes,yes,no,300234065582260,BD2GI,AOML,DNR,North
2018-08-13T19:00:28Z,1534186829,2018,19,0,225.792,225.792,69.266,-19.765,1008.6,5.34,-999.0,yes,yes,no,300234065582260,BD2GI,AOML,DNR,North
2018-08-13T19:59:31Z,1534190371,2018,20,0,225.833,225.833,69.259,-19.784,1008.4,5.31,-999.0,yes,yes,no,300234065582260,BD2GI,AOML,DNR,North